Showing default

QIANFAN-67, 62797

Orbit data source: Space-Track

QIANFAN-67, 62797 is a Chinese payload satellite in LEO that was launched on Thu, 23 Jan 2025 UTC via a CHANG ZHENG 6A launch vehicle from the Taiyaun Space Center, China (TSC). Payload-class satellites include a variety of spacecraft equipped with specific instruments for various scientific and technological missions. These include communications satellites like Starlink; space stations such as the ISS; scientific satellites like the Hubble; Earth observation satellites from companies like Planet Labs, Umbra, and HawkEye 360; GPS; miniature CubeSats for education and research; and military/defense satellites.

Loading next visibility...
Identifier
62797, 2025-016N
Orbit
LEO
Country
Flag of CNCN / PRC
Related business
Manufacturer
SECM
Mission
Operational Commercial Communications
Bus & Motor
QIANFAN, Unknown motor
Mass
267 kg wet, ~267 kg dry
Launch date (UTC)
2025-01-23 (2 years ago)
Launch vehicle
CHANG ZHENG 6A
Launch site
Taiyaun Space Center, China (TSC)
Object type
Payload
Rocket body
Debris
Shape & HBR
Box + 1 Pan, 5.0 m
Radar Cross Section
13.200 m², Large (>1 m²)

Expand to show TLE details & history
Last TLE update: 9 hours ago

TLE from 9 hours ago
0 QIANFAN-67
1 62797U 25016N   26257.57378266  .00000034  00000-0  34100-4 0  9990
2 62797  88.9662  74.3990 0013123 268.9196  91.0452 13.51028924 84508
Epoch: 2026-09-14T13:46Z
TLE epoch observation values (Epoch: 2026-09-14T13:46:14.821Z)
Latitude
-0.00001°
Longitude
-125.71489°
Altitude
1,071.62 km
Speed
7.316 km/s
True Right ascension
04h 57m 35s
True Declination
0° 00' 00"
Sunlit
Object was in daylight at epoch
Visualization orbit readout
Latitude
Unknown
Longitude
Unknown
Altitude
Unknown
Speed
Unknown
Apparent Right ascension
Unknown
Apparent Declination
Unknown
Sunlit
N/A
Visualization observer readout
Local Sidereal Time
14:58:24
Azimuth
Unknown
Elevation
Unknown
Doppler factor
Unknown
Orbital elements
Apogee altitude
1,075.295 km
Perigee altitude
1,055.758 km
Semi-major axis
7,443.663 km
Eccentricity
0.00131
Inclination
88.9662°
RAAN
74.399°
Arg. of periapsis
268.9196°
True anomaly
91.19555°
Mean anomaly
91.0452°
Eccentric anomaly
91.12037°
Mean motion
3.37958 °/min
Orbital period
106.52 mins
BSTAR
0.0000341
Loading maneuver chart data...
Computing Atmospheric mass density...
Loading historical data...
Loading historical data...
Loading historical data...
Loading historical data...
Loading historical data...
Loading historical data...
Loading historical data...

Documentation

Showing up to 5 results
|